Location: ??????
(36.0418°N, 43.6351°E)
Time: 05:21:19
(UTC+00:00)

Cosmos 883 Rocket - Pass Details

Date: 20 June 2021
Orbit: 950 x 996 km, 83.0° (Epoch: 27 July)

Event Time Altitude Azimuth Distance (km) Brightness Sun altitude
Rises 23:44:31 0° 359° (N) 3,635 8.3 -19.9°
Reaches altitude 10° 23:47:08 10° 5° (N) 2,683 7.6 -19.5°
Maximum altitude 23:53:02 49° 80° (E) 1,211 5.3 -18.8°
Drops below altitude 10° 23:58:54 10° 154° (SSE) 2,667 6.6 -18.0°
Sets 00:01:28 0° 160° (SSE) 3,611 7.2 -17.7°
